Hlavní strana
METAR-TAF:

METAR-TAF

Letiště :

Kingstree, Jižní Karolína, Spojené státy americké

zeměpisná šířka: 33-43-02N, zeměpisná délka: 079-51-25W, výška: 20 m

Aktuální stav počasí

Zpráva byla vytvořena před 36 minutami, v 09:15 UTC
Bezvětří
Teplota 22°C
Vlhkost vzduchu 94%
Tlak 1018 hPa
Viditelnost: 0.8 km
Zataženo ve výšce 200 ft
mlha

METAR: KCKI 070915Z AUTO 00000KT 1/2SM FG OVC002 22/21 A3006 RMK AO2

Čas: 05:51 (09:51 UTC)


TAF: chybějící

Stav a předpovědi počasí z více než 4 000 letišť (zprávy METAR a TAF).

Červené a žluté tečky na mapě představují dostupné meteorologické stanice.

Když kurzor umístíte na tečku, zobrazí se název stanice.

Pak kliknutím zobrazíte stav a předpověď počasí.

Chcete-li změnit mapu, kliknutím na zelené tlačítko se znaménkem +mapu přiblížíte, kliknutím na zelené tlačítko se znaménkem – mapu oddálíte a kliknutím na zelené šipky přejdete na sousední mapy.


METAR-TAF: